SCP
-0 -0 -0 -0 -0 0 0 0 0 0 0 0 0 0 0 0 0 0 0 0 0 0 0 0 0 0 0 0 0 0 0 0 0 0 0 0 0 0 0 0 0 0 0 0
-0 -0 -0 -0 -0 0 0 0 0 0 0 0 0 0 0 0 0 0 0 0 0 0 0 0 0 0 0 0 0 0 0 0 0 0 -0 -0 0 0 0 0 0 0 0 0
-0 -0 -0 -0 -0 0 0 0 0 0 0 0 0 0 0 0 0 0 0 0 0 0 0 0 0 0 0 0 0 0 0 0 0 0 0 0 0 0 0 0 0 0 0 0
-0 -0 -0 -0 -0 -0 0 0 0 0 0 0 0 0 0 0 0 0 0 0 0 0 0 0 0 0 0 0 0 0 0 0 0 0 0 0 0 0 0 0 0 0 0 0
-0 -0 -0 -0 -0 -0 0 0 0 0 0 0 0 0 0 0 0 0 0 0 0 0 0 0 0 0 0 0 0 0 0 0 0 -0 0 -0 -0 0 0 0 0 0 0 0
-0 -0 -0 -0 -0 -0 0 0 0 0 0 0 0 0 0 0 0 0 0 0 0 0 0 0 0 0 0 0 0 0 0 0 0 0 0 -0 0 0 0 0 0 0 0 0
-0 -0 -0 -0 -0 -0 0 0 0 0 0 0 0 0 0 0 0 0 0 0 0 0 0 0 0 0 0 0 0 0 0 0 0 0 0 0 0 0 0 0 0 0 0 0
-0 -0 -0 -0 -0 -0 0 0 0 0 0 0 0 0 0 0 0 0 0 0 0 0 0 0 0 0 0 0 0 0 0 0 0 0 0 -0 -0 -0 -0 0 0 0 -0 0
-0 -0 -0 -0 -0 -0 0 0 0 0 0 0 0 0 0 0 0 0 0 0 0 0 0 0 0 0 0 0 0 0 0 -0 0 0 0 0 0 -0 0 0 0 0 -0 -0
-0 -0 -0 -0 0 0 0 0 0 0 0 0 0 0 0 0 0 0 0 0 0 -0 -0 -0 0 0 0 0 0 0 0 -0 -0 0 0 -0 -0 0 0 -0 0 0 -0 -0
-0 -0 0 0 0 0 0 0 0 0 0 0 0 0 0 0 0 0 0 0 0 -0 -0 0 0 0 0 0 0 0 -0 -0 0 -0 -0 0 -0 -0 -0 0 -0 -0 -0 -0
0 0 0 0 0 -0 -0 -0 0 0 0 0 -0 -0 -0 -0 -0 -0 0 0 -0 -0 0 0 0 0 0 0 0 -0 0 0 -0 -0 -0 0 -0 -0 0 0 0 -0 -0 0
-0 -0 -0 0 0 0 -0 -0 -0 0 0 0 -0 -0 -0 -0 -0 -0 -0 0 0 0 0 -0 0 -0 0 0 -0 0 0 0 -0 -0 -0 -0 -0 -0 0 0 -0 0 0 0
-0 -0 -0 -0 -0 -0 -0 -0 -0 0 -0 -0 0 0 -0 0 -0 -0 -0 0 0 -0 -0 0 0 0 0 0 0 0 -0 0 -0 -0 0 0 -0 0 0 0 0 0 0 0
-0 -0 -0 -0 -0 -0 -0 0 0 0 0 -0 -0 -0 -0 0 0 0 0 0 0 -0 0 -0 0 0 0 0 0 -0 -0 -0 -0 -0 -0 0 0 0 0 0 0 0 0 0
-0 -0 -0 -0 -0 0 0 0 0 0 0 0 0 0 0 0 0 0 0 0 -0 -0 0 0 0 0 0 0 -0 0 -0 0 -0 -0 -0 -0 -0 0 0 0 0 0 0 0
-0 -0 -0 0 0 0 0 0 0 0 0 0 0 0 0 0 0 0 0 -0 0 0 -0 0 0 0 0 0 0 0 0 0 0 0 0 -0 0 -0 0 0 0 0 0 0
-0 0 0 0 0 0 0 0 0 0 0 0 0 0 0 0 0 0 0 0 0 0 0 0 0 0 0 0 0 0 0 0 0 0 0 0 0 0 0 0 0 0 0 0
0 0 0 0 0 0 0 0 -0 0 -0 -0 -0 -0 0 0 0 0 0 0 0 0 0 0 0 0 0 0 0 0 0 0 0 0 0 0 0 0 0 0 0 0 0 0
0 0 0 -0 0 0 0 0 0 0 0 -0 -0 -0 0 0 0 0 0 0 0 0 0 0 0 0 -0 0 0 -0 0 0 0 0 0 0 0 0 0 0 0 0 0 0
0 -0 -0 -0 0 -0 -0 -0 -0 0 0 0 0 0 0 -0 0 0 0 0 0 0 -0 -0 0 0 0 0 0 -0 0 -0 0 0 0 0 0 0 0 0 0 0 0 0
-0 -0 0 0 -0 -0 -0 -0 0 -0 0 -0 -0 0 -0 0 0 -0 -0 -0 -0 -0 -0 -0 0 0 -0 -0 -0 -0 -0 -0 -0 0 0 0 0 0 0 0 0 0 0 0
0 0 -0 -0 0 0 -0 -0 -0 -0 -0 -0 0 0 -0 -0 -0 -0 -0 0 0 -0 -0 -0 -0 -0 0 0 -0 0 0 0 -0 0 0 0 0 0 0 0 0 0 0 0
-0 0 -0 0 0 0 0 0 0 0 0 0 0 0 0 0 0 -0 0 0 -0 -0 -0 0 0 -0 -0 -0 -0 0 0 0 0 0 0 0 -0 0 0 0 0 0 0 0
-0 0 0 0 0 0 0 0 0 0 0 0 0 0 0 0 0 0 0 0 0 0 -0 -0 0 -0 -0 -0 -0 -0 -0 0 0 0 0 0 0 0 0 0 0 0 0 0
0 0 0 0 0 0 0 0 0 0 0 0 0 0 0 0 0 0 0 0 0 -0 0 0 -0 -0 0 -0 -0 -0 -0 0 0 0 0 0 0 0 0 0 0 0 0 0
0 0 0 -0 0 0 -0 0 0 0 0 0 0 0 0 0 0 0 0 0 0 0 0 0 -0 -0 -0 0 0 -0 -0 -0 -0 -0 0 0 0 0 0 0 -0 0 0 0
Wind_Speed_500mb
60 61 57 44 12 13 20 10 9 16 6 16 7 7 11 12 13 10 6 10 11 5 4 9 9 14 19 11 13 8 12 8 14 13 12 11 20 21 17 14 18 28 25 32
59 62 58 44 9 18 10 15 7 16 4 8 9 15 22 15 6 7 4 7 8 1 7 9 20 16 14 15 21 12 14 6 11 23 19 11 13 19 24 21 23 33 30 27
59 61 59 48 12 11 10 7 7 12 10 8 24 23 18 17 17 20 16 15 13 13 12 14 18 22 10 17 21 12 11 4 9 14 20 20 21 26 23 20 20 32 34 50
58 58 60 56 25 13 11 6 6 5 7 12 12 3 14 21 10 10 4 8 7 18 11 20 21 21 18 8 7 4 9 3 8 10 9 11 16 18 19 21 27 31 42 47
57 57 58 60 37 14 20 5 8 17 24 21 17 2 15 19 18 2 6 15 11 7 16 12 19 13 9 9 8 6 3 4 11 23 13 16 17 25 27 35 41 47 55 57
57 54 55 55 53 37 31 26 21 8 10 11 15 12 9 17 18 16 13 16 18 24 18 19 16 16 14 13 8 9 5 11 8 8 13 22 19 23 30 36 39 34 29 45
54 52 49 49 50 44 30 21 10 10 16 17 17 22 22 19 17 21 16 4 17 9 12 21 20 20 20 17 16 11 9 9 6 8 13 5 26 30 36 36 38 40 40 45
50 49 47 43 41 41 26 25 27 30 21 29 25 23 25 26 25 24 22 17 14 18 20 20 16 15 13 16 14 11 8 14 6 6 15 19 25 37 46 35 16 48 40 54
43 43 38 40 44 37 26 30 24 25 27 20 18 16 7 15 17 19 18 13 11 14 13 11 11 6 13 9 15 6 6 9 2 7 2 7 20 36 55 45 5 58 49 44
39 37 38 42 39 35 35 39 44 46 50 44 30 19 15 6 5 14 13 9 12 14 13 13 5 13 9 3 9 15 16 15 12 11 5 10 24 38 42 23 20 39 39 42
35 33 30 34 45 53 44 52 44 55 65 50 45 43 39 24 28 13 13 10 8 13 6 5 4 8 10 14 14 6 11 10 7 10 9 4 36 12 12 16 33 26 37 39
34 30 26 22 32 32 31 39 30 27 51 45 41 45 40 29 16 19 12 12 14 18 6 6 5 11 8 10 7 21 6 7 6 6 6 3 13 15 16 12 19 27 31 36
30 26 27 27 41 45 38 30 22 35 45 41 40 40 39 38 33 22 7 24 13 11 20 19 7 15 12 8 12 5 5 12 1 10 7 10 18 22 18 19 26 26 25 32
29 25 16 19 18 19 35 27 21 21 32 33 30 28 41 33 37 42 42 37 30 27 29 23 9 12 10 11 13 10 10 8 8 9 18 10 18 23 23 21 24 28 24 17
33 36 13 14 10 4 17 21 21 23 16 30 31 33 31 30 32 34 34 33 34 36 33 30 14 21 9 16 12 11 13 6 7 8 4 3 16 22 23 24 25 25 26 27
25 38 31 16 15 24 13 17 29 23 20 10 9 17 25 26 30 33 29 26 26 19 23 18 15 17 4 6 8 16 10 5 4 7 7 7 14 15 20 19 19 22 23 23
23 25 34 36 20 10 5 9 11 13 16 2 10 14 9 11 13 23 26 26 22 20 18 14 15 19 16 5 4 15 6 8 5 8 8 13 15 17 15 13 13 16 20 18
18 20 25 31 31 29 22 16 8 10 7 7 6 8 7 12 9 6 12 18 21 19 11 10 8 4 5 2 9 18 3 2 2 7 8 10 10 17 12 12 14 19 20 18
13 16 19 20 19 9 8 19 26 19 10 5 8 6 5 7 4 4 6 5 8 11 20 10 9 2 3 9 21 26 7 6 2 4 7 10 9 13 18 18 19 20 19 16
11 11 6 6 8 6 10 11 4 6 11 14 15 6 1 5 8 2 4 4 6 4 7 10 4 4 19 3 9 20 13 8 7 5 4 9 9 12 14 13 15 16 14 14
8 6 7 4 13 6 4 4 8 4 6 10 14 13 7 8 1 4 2 3 4 4 6 4 7 11 30 37 20 13 12 6 8 7 10 11 6 7 8 7 8 10 10 11
4 3 7 6 6 6 4 4 6 10 4 9 8 7 5 3 4 6 4 2 2 6 4 7 6 12 29 35 33 19 11 13 11 14 9 9 5 3 4 3 4 5 6 6
7 6 4 7 4 9 4 5 7 5 7 8 6 6 2 3 4 11 3 4 6 7 7 2 6 16 21 15 27 24 16 13 7 9 8 7 5 3 4 4 5 5 6 6
3 2 6 2 5 7 6 6 5 1 2 5 7 9 5 6 4 5 4 3 6 7 4 3 4 14 17 21 21 13 16 10 12 12 5 10 5 7 7 6 8 12 14 14
5 3 1 7 8 11 8 5 3 1 4 7 8 6 7 8 3 4 3 3 7 3 6 6 16 9 14 19 21 20 17 18 15 10 9 4 12 18 17 14 19 22 19 20
4 1 6 11 3 4 5 4 5 4 4 6 4 8 6 2 2 2 7 6 2 7 12 12 8 8 13 17 19 20 18 21 19 19 19 16 19 22 20 24 21 23 25 23
1 6 7 18 12 8 7 3 3 2 6 5 5 7 6 2 2 5 4 5 10 14 11 10 7 7 12 16 18 19 19 18 18 19 18 19 20 22 20 26 30 28 22 16
Wind_Direction_500mb
9 6 5 6 11 171 185 270 247 358 153 215 306 155 120 96 93 104 77 51 57 56 132 93 93 95 46 14 337 35 35 317 297 329 71 34 51 34 2 335 320 318 300 272
13 10 5 8 11 172 181 254 5 351 237 231 144 122 110 79 118 39 97 105 49 162 113 121 111 108 62 45 27 25 358 111 282 154 163 152 43 343 333 311 285 274 282 281
15 15 10 10 16 171 180 247 207 65 60 34 129 153 136 120 83 68 75 103 109 115 108 88 131 123 82 56 62 7 296 67 355 337 346 344 316 329 329 312 292 304 295 306
17 19 19 15 29 125 126 328 56 356 140 99 95 174 142 140 120 95 59 95 139 133 119 109 111 112 128 104 81 106 347 98 323 314 280 301 306 296 322 313 327 318 324 313
20 20 23 26 30 85 74 82 120 96 102 118 115 165 98 109 91 45 113 127 124 191 108 31 124 134 129 79 113 56 28 70 297 271 140 291 279 43 358 13 352 329 318 311
21 21 24 32 39 60 86 84 109 111 154 122 89 83 90 109 120 63 70 126 127 104 78 69 81 67 81 96 34 61 11 344 324 310 330 273 85 29 16 347 340 13 342 326
22 23 26 32 38 58 72 70 73 118 86 78 90 100 95 72 60 107 111 112 115 98 134 123 120 113 117 108 87 43 1 307 295 307 309 337 124 33 357 347 34 359 350 352
23 27 32 35 41 58 54 60 79 99 100 101 93 100 104 102 103 96 94 76 95 142 160 141 137 135 152 104 60 64 36 309 8 316 321 130 33 357 346 340 358 17 0 348
26 28 39 34 40 59 58 72 83 105 103 55 83 95 113 118 119 112 110 97 121 163 222 226 240 138 61 138 152 123 129 234 123 334 246 351 358 343 336 317 236 13 359 354
30 31 42 47 44 62 65 76 87 94 80 49 51 36 48 48 53 82 113 117 147 212 219 212 193 107 328 113 56 16 1 353 2 337 305 106 351 335 326 21 343 341 345 0
37 39 56 52 57 75 73 75 83 100 88 68 61 54 42 30 25 26 104 189 188 214 291 79 144 121 81 87 55 32 28 314 29 337 359 36 2 3 29 293 315 341 356 0
43 43 50 55 45 82 70 80 80 84 91 84 61 55 47 41 28 354 87 95 41 10 348 90 147 135 159 139 107 68 63 10 356 48 45 282 340 296 349 337 331 1 1 358
43 49 52 69 103 91 84 85 83 84 101 71 53 39 41 48 45 29 119 67 98 67 47 58 65 77 6 59 65 83 62 40 89 145 68 8 359 9 18 10 4 5 356 7
43 43 68 99 129 77 63 66 44 59 89 86 69 60 50 49 53 59 76 87 84 92 95 94 62 95 63 73 78 52 28 332 21 102 33 292 21 5 17 21 10 357 353 350
44 32 61 128 91 118 74 61 51 66 42 105 104 61 50 51 58 66 72 77 80 77 80 89 78 79 66 101 100 49 31 48 2 41 8 270 309 342 355 353 12 351 352 360
45 39 54 108 93 105 119 82 93 85 92 108 74 77 54 59 60 61 63 61 58 72 83 77 75 51 318 54 75 2 69 85 24 351 3 359 2 342 347 355 357 354 356 1
50 55 57 66 76 50 74 82 149 88 63 38 122 111 41 41 56 62 63 74 73 72 70 50 44 26 36 32 32 315 62 89 75 49 10 11 13 346 348 350 340 347 4 6
57 62 63 65 65 62 57 76 104 75 59 24 24 104 130 34 41 79 76 53 77 66 83 102 78 67 45 134 301 326 68 154 116 44 22 9 2 349 5 19 8 2 21 17
49 53 58 49 46 72 50 66 62 54 32 64 67 15 32 2 61 122 98 77 73 75 79 87 86 32 41 254 301 301 263 212 195 338 334 11 359 353 7 10 19 20 26 33
32 45 316 80 357 46 51 21 72 54 41 67 57 67 21 31 357 243 96 94 148 122 92 109 79 217 237 195 287 281 269 208 211 287 41 347 354 10 9 12 17 26 34 38
13 6 51 16 46 30 3 60 21 33 85 41 40 39 353 34 27 328 192 143 187 96 114 96 31 7 25 2 349 227 234 273 263 269 299 322 328 335 355 5 15 26 36 46
59 97 43 20 356 13 335 50 108 33 79 32 31 7 4 0 355 280 227 260 142 79 108 67 3 2 22 20 37 50 8 352 320 265 287 296 297 281 315 321 354 8 15 30
35 19 25 28 73 26 57 25 38 40 10 358 347 322 308 285 254 270 336 43 63 102 56 129 245 25 27 34 40 8 355 334 358 338 1 347 299 239 281 264 268 283 304 306
344 40 14 4 17 65 93 98 140 47 79 327 335 313 296 276 215 320 32 67 53 48 71 257 254 33 11 7 4 343 348 318 339 344 346 201 342 314 285 273 270 259 268 270
29 29 98 64 81 101 83 72 84 87 320 323 316 291 260 263 105 8 67 93 61 114 202 166 58 16 5 4 5 3 1 8 10 359 359 317 272 307 294 280 288 279 275 259
34 18 115 114 150 115 108 33 344 317 318 285 266 277 269 156 268 128 36 76 173 214 78 69 78 27 6 2 2 4 1 4 0 4 7 4 352 353 344 333 323 319 273 265
292 91 40 33 19 40 7 2 237 272 289 284 35 310 356 32 199 82 60 201 105 102 101 72 48 15 6 2 2 2 357 356 355 351 347 346 346 343 345 343 344 337 332 261
Wind_Speed_850mb
60 61 57 44 12 13 20 10 9 16 6 16 7 7 11 12 13 10 6 10 11 5 4 9 9 14 19 11 13 8 12 8 14 13 12 11 20 21 17 14 18 28 25 32
59 62 58 44 9 18 10 15 7 16 4 8 9 15 22 15 6 7 4 7 8 1 7 9 20 16 14 15 21 12 14 6 11 23 19 11 13 19 24 21 23 33 30 27
59 61 59 48 12 11 10 7 7 12 10 8 24 23 18 17 17 20 16 15 13 13 12 14 18 22 10 17 21 12 11 4 9 14 20 20 21 26 23 20 20 32 34 50
58 58 60 56 25 13 11 6 6 5 7 12 12 3 14 21 10 10 4 8 7 18 11 20 21 21 18 8 7 4 9 3 8 10 9 11 16 18 19 21 27 31 42 47
57 57 58 60 37 14 20 5 8 17 24 21 17 2 15 19 18 2 6 15 11 7 16 12 19 13 9 9 8 6 3 4 11 23 13 16 17 25 27 35 41 47 55 57
57 54 55 55 53 37 31 26 21 8 10 11 15 12 9 17 18 16 13 16 18 24 18 19 16 16 14 13 8 9 5 11 8 8 13 22 19 23 30 36 39 34 29 45
54 52 49 49 50 44 30 21 10 10 16 17 17 22 22 19 17 21 16 4 17 9 12 21 20 20 20 17 16 11 9 9 6 8 13 5 26 30 36 36 38 40 40 45
50 49 47 43 41 41 26 25 27 30 21 29 25 23 25 26 25 24 22 17 14 18 20 20 16 15 13 16 14 11 8 14 6 6 15 19 25 37 46 35 16 48 40 54
43 43 38 40 44 37 26 30 24 25 27 20 18 16 7 15 17 19 18 13 11 14 13 11 11 6 13 9 15 6 6 9 2 7 2 7 20 36 55 45 5 58 49 44
39 37 38 42 39 35 35 39 44 46 50 44 30 19 15 6 5 14 13 9 12 14 13 13 5 13 9 3 9 15 16 15 12 11 5 10 24 38 42 23 20 39 39 42
35 33 30 34 45 53 44 52 44 55 65 50 45 43 39 24 28 13 13 10 8 13 6 5 4 8 10 14 14 6 11 10 7 10 9 4 36 12 12 16 33 26 37 39
34 30 26 22 32 32 31 39 30 27 51 45 41 45 40 29 16 19 12 12 14 18 6 6 5 11 8 10 7 21 6 7 6 6 6 3 13 15 16 12 19 27 31 36
30 26 27 27 41 45 38 30 22 35 45 41 40 40 39 38 33 22 7 24 13 11 20 19 7 15 12 8 12 5 5 12 1 10 7 10 18 22 18 19 26 26 25 32
29 25 16 19 18 19 35 27 21 21 32 33 30 28 41 33 37 42 42 37 30 27 29 23 9 12 10 11 13 10 10 8 8 9 18 10 18 23 23 21 24 28 24 17
33 36 13 14 10 4 17 21 21 23 16 30 31 33 31 30 32 34 34 33 34 36 33 30 14 21 9 16 12 11 13 6 7 8 4 3 16 22 23 24 25 25 26 27
25 38 31 16 15 24 13 17 29 23 20 10 9 17 25 26 30 33 29 26 26 19 23 18 15 17 4 6 8 16 10 5 4 7 7 7 14 15 20 19 19 22 23 23
23 25 34 36 20 10 5 9 11 13 16 2 10 14 9 11 13 23 26 26 22 20 18 14 15 19 16 5 4 15 6 8 5 8 8 13 15 17 15 13 13 16 20 18
18 20 25 31 31 29 22 16 8 10 7 7 6 8 7 12 9 6 12 18 21 19 11 10 8 4 5 2 9 18 3 2 2 7 8 10 10 17 12 12 14 19 20 18
13 16 19 20 19 9 8 19 26 19 10 5 8 6 5 7 4 4 6 5 8 11 20 10 9 2 3 9 21 26 7 6 2 4 7 10 9 13 18 18 19 20 19 16
11 11 6 6 8 6 10 11 4 6 11 14 15 6 1 5 8 2 4 4 6 4 7 10 4 4 19 3 9 20 13 8 7 5 4 9 9 12 14 13 15 16 14 14
8 6 7 4 13 6 4 4 8 4 6 10 14 13 7 8 1 4 2 3 4 4 6 4 7 11 30 37 20 13 12 6 8 7 10 11 6 7 8 7 8 10 10 11
4 3 7 6 6 6 4 4 6 10 4 9 8 7 5 3 4 6 4 2 2 6 4 7 6 12 29 35 33 19 11 13 11 14 9 9 5 3 4 3 4 5 6 6
7 6 4 7 4 9 4 5 7 5 7 8 6 6 2 3 4 11 3 4 6 7 7 2 6 16 21 15 27 24 16 13 7 9 8 7 5 3 4 4 5 5 6 6
3 2 6 2 5 7 6 6 5 1 2 5 7 9 5 6 4 5 4 3 6 7 4 3 4 14 17 21 21 13 16 10 12 12 5 10 5 7 7 6 8 12 14 14
5 3 1 7 8 11 8 5 3 1 4 7 8 6 7 8 3 4 3 3 7 3 6 6 16 9 14 19 21 20 17 18 15 10 9 4 12 18 17 14 19 22 19 20
4 1 6 11 3 4 5 4 5 4 4 6 4 8 6 2 2 2 7 6 2 7 12 12 8 8 13 17 19 20 18 21 19 19 19 16 19 22 20 24 21 23 25 23
1 6 7 18 12 8 7 3 3 2 6 5 5 7 6 2 2 5 4 5 10 14 11 10 7 7 12 16 18 19 19 18 18 19 18 19 20 22 20 26 30 28 22 16
Wind_Direction_850mb
9 6 5 6 11 171 185 270 247 358 153 215 306 155 120 96 93 104 77 51 57 56 132 93 93 95 46 14 337 35 35 317 297 329 71 34 51 34 2 335 320 318 300 272
13 10 5 8 11 172 181 254 5 351 237 231 144 122 110 79 118 39 97 105 49 162 113 121 111 108 62 45 27 25 358 111 282 154 163 152 43 343 333 311 285 274 282 281
15 15 10 10 16 171 180 247 207 65 60 34 129 153 136 120 83 68 75 103 109 115 108 88 131 123 82 56 62 7 296 67 355 337 346 344 316 329 329 312 292 304 295 306
17 19 19 15 29 125 126 328 56 356 140 99 95 174 142 140 120 95 59 95 139 133 119 109 111 112 128 104 81 106 347 98 323 314 280 301 306 296 322 313 327 318 324 313
20 20 23 26 30 85 74 82 120 96 102 118 115 165 98 109 91 45 113 127 124 191 108 31 124 134 129 79 113 56 28 70 297 271 140 291 279 43 358 13 352 329 318 311
21 21 24 32 39 60 86 84 109 111 154 122 89 83 90 109 120 63 70 126 127 104 78 69 81 67 81 96 34 61 11 344 324 310 330 273 85 29 16 347 340 13 342 326
22 23 26 32 38 58 72 70 73 118 86 78 90 100 95 72 60 107 111 112 115 98 134 123 120 113 117 108 87 43 1 307 295 307 309 337 124 33 357 347 34 359 350 352
23 27 32 35 41 58 54 60 79 99 100 101 93 100 104 102 103 96 94 76 95 142 160 141 137 135 152 104 60 64 36 309 8 316 321 130 33 357 346 340 358 17 0 348
26 28 39 34 40 59 58 72 83 105 103 55 83 95 113 118 119 112 110 97 121 163 222 226 240 138 61 138 152 123 129 234 123 334 246 351 358 343 336 317 236 13 359 354
30 31 42 47 44 62 65 76 87 94 80 49 51 36 48 48 53 82 113 117 147 212 219 212 193 107 328 113 56 16 1 353 2 337 305 106 351 335 326 21 343 341 345 0
37 39 56 52 57 75 73 75 83 100 88 68 61 54 42 30 25 26 104 189 188 214 291 79 144 121 81 87 55 32 28 314 29 337 359 36 2 3 29 293 315 341 356 0
43 43 50 55 45 82 70 80 80 84 91 84 61 55 47 41 28 354 87 95 41 10 348 90 147 135 159 139 107 68 63 10 356 48 45 282 340 296 349 337 331 1 1 358
43 49 52 69 103 91 84 85 83 84 101 71 53 39 41 48 45 29 119 67 98 67 47 58 65 77 6 59 65 83 62 40 89 145 68 8 359 9 18 10 4 5 356 7
43 43 68 99 129 77 63 66 44 59 89 86 69 60 50 49 53 59 76 87 84 92 95 94 62 95 63 73 78 52 28 332 21 102 33 292 21 5 17 21 10 357 353 350
44 32 61 128 91 118 74 61 51 66 42 105 104 61 50 51 58 66 72 77 80 77 80 89 78 79 66 101 100 49 31 48 2 41 8 270 309 342 355 353 12 351 352 360
45 39 54 108 93 105 119 82 93 85 92 108 74 77 54 59 60 61 63 61 58 72 83 77 75 51 318 54 75 2 69 85 24 351 3 359 2 342 347 355 357 354 356 1
50 55 57 66 76 50 74 82 149 88 63 38 122 111 41 41 56 62 63 74 73 72 70 50 44 26 36 32 32 315 62 89 75 49 10 11 13 346 348 350 340 347 4 6
57 62 63 65 65 62 57 76 104 75 59 24 24 104 130 34 41 79 76 53 77 66 83 102 78 67 45 134 301 326 68 154 116 44 22 9 2 349 5 19 8 2 21 17
49 53 58 49 46 72 50 66 62 54 32 64 67 15 32 2 61 122 98 77 73 75 79 87 86 32 41 254 301 301 263 212 195 338 334 11 359 353 7 10 19 20 26 33
32 45 316 80 357 46 51 21 72 54 41 67 57 67 21 31 357 243 96 94 148 122 92 109 79 217 237 195 287 281 269 208 211 287 41 347 354 10 9 12 17 26 34 38
13 6 51 16 46 30 3 60 21 33 85 41 40 39 353 34 27 328 192 143 187 96 114 96 31 7 25 2 349 227 234 273 263 269 299 322 328 335 355 5 15 26 36 46
59 97 43 20 356 13 335 50 108 33 79 32 31 7 4 0 355 280 227 260 142 79 108 67 3 2 22 20 37 50 8 352 320 265 287 296 297 281 315 321 354 8 15 30
35 19 25 28 73 26 57 25 38 40 10 358 347 322 308 285 254 270 336 43 63 102 56 129 245 25 27 34 40 8 355 334 358 338 1 347 299 239 281 264 268 283 304 306
344 40 14 4 17 65 93 98 140 47 79 327 335 313 296 276 215 320 32 67 53 48 71 257 254 33 11 7 4 343 348 318 339 344 346 201 342 314 285 273 270 259 268 270
29 29 98 64 81 101 83 72 84 87 320 323 316 291 260 263 105 8 67 93 61 114 202 166 58 16 5 4 5 3 1 8 10 359 359 317 272 307 294 280 288 279 275 259
34 18 115 114 150 115 108 33 344 317 318 285 266 277 269 156 268 128 36 76 173 214 78 69 78 27 6 2 2 4 1 4 0 4 7 4 352 353 344 333 323 319 273 265
292 91 40 33 19 40 7 2 237 272 289 284 35 310 356 32 199 82 60 201 105 102 101 72 48 15 6 2 2 2 357 356 355 351 347 346 346 343 345 343 344 337 332 261